| time (UTC) | temp F | wind direction | speed knots | gust knots | rain 1hr in | rain 24hr in | rain mn in | humidity % | barometer mb |
| 20260506070914 | 74 | 0.0 | 0.0 | 0.00 | 0.00 | 0.00 | 31 | 1011.5 | |
| 20260506061912 | 74 | 0.0 | 0.0 | 0.00 | 0.00 | 0.00 | 31 | 1011.7 | |
| 20260506060913 | 74 | 0.0 | 0.0 | 0.00 | 0.00 | 0.00 | 31 | 1011.6 | |
| 20260506050913 | 73 | 0.0 | 0.0 | 0.00 | 0.00 | 0.00 | 32 | 1011.2 | |
| 20260506044912 | 73 | 0.0 | 0.0 | 0.00 | 0.00 | 0.00 | 32 | 1011.2 | |
| 20260506043912 | 72 | 0.0 | 0.0 | 0.00 | 0.00 | 0.00 | 32 | 1011.1 | |
| 20260506042913 | 73 | 0.0 | 0.0 | 0.00 | 0.00 | 0.00 | 32 | 1011.0 | |
| 20260506041912 | 69 | 0.0 | 0.0 | 0.00 | 0.00 | 0.00 | 32 | 1008.1 | |
| 20260506040912 | 72 | 0.0 | 0.0 | 0.00 | 0.00 | 0.00 | 32 | 1010.9 | |
| 20260506035912 | 72 | 0.0 | 0.0 | 0.00 | 0.00 | 0.00 | 32 | 1010.8 | |
| 20260506034911 | 72 | 0.0 | 0.0 | 0.00 | 0.00 | 0.00 | 32 | 1010.6 | |
| 20260506033912 | 72 | 0.0 | 0.0 | 0.00 | 0.00 | 0.00 | 32 | 1010.6 | |
| 20260506032912 | 72 | 0.0 | 0.0 | 0.00 | 0.00 | 0.00 | 32 | 1010.5 | |
| 20260506031911 | 72 | 0.0 | 0.0 | 0.00 | 0.00 | 0.00 | 32 | 1010.4 | |
| 20260506030912 | 71 | 0.0 | 0.0 | 0.00 | 0.00 | 0.00 | 32 | 1009.5 | |
| 20260506025912 | 73 | 0.0 | 0.0 | 0.00 | 0.00 | 0.00 | 32 | 1010.2 | |
| 20260506024912 | 72 | 0.0 | 0.0 | 0.00 | 0.00 | 0.00 | 33 | 1010.1 | |
| 20260506023912 | 72 | 0.0 | 0.0 | 0.00 | 0.00 | 0.00 | 33 | 1010.0 | |
| 20260506021912 | 72 | 0.0 | 0.0 | 0.00 | 0.00 | 0.00 | 33 | 1010.1 | |
| 20260506020911 | 72 | 0.0 | 0.0 | 0.00 | 0.00 | 0.00 | 33 | 1010.1 | |
| 20260506015912 | 72 | 0.0 | 0.0 | 0.00 | 0.00 | 0.00 | 33 | 1009.9 | |
| 20260506014912 | 72 | 0.0 | 0.0 | 0.00 | 0.00 | 0.00 | 33 | 1009.9 | |
| 20260506013911 | 72 | 0.0 | 0.0 | 0.00 | 0.00 | 0.00 | 33 | 1009.9 | |
| 20260506012912 | 72 | 0.0 | 0.0 | 0.00 | 0.00 | 0.00 | 33 | 1009.8 | |
| 20260506011912 | 72 | 0.0 | 0.0 | 0.00 | 0.00 | 0.00 | 33 | 1009.6 | |
| 20260506010913 | 72 | 0.0 | 0.0 | 0.00 | 0.00 | 0.00 | 33 | 1009.4 | |
| 20260506005912 | 73 | 0.0 | 0.0 | 0.00 | 0.00 | 0.00 | 33 | 1009.3 | |
| 20260506004915 | 73 | 0.0 | 0.0 | 0.00 | 0.00 | 0.00 | 33 | 1009.2 | |
| 20260506003916 | 72 | 0.0 | 0.0 | 0.00 | 0.00 | 0.00 | 33 | 1009.1 | |
| 20260506002913 | 72 | 0.0 | 0.0 | 0.00 | 0.00 | 0.00 | 34 | 1009.1 | |
| 20260506001914 | 72 | 0.0 | 0.0 | 0.00 | 0.00 | 0.00 | 34 | 1009.2 | |
| 20260506000915 | 71 | 0.0 | 0.0 | 0.00 | 0.00 | 0.00 | 34 | 1007.3 | |
| 20260505235912 | 72 | 0.0 | 0.0 | 0.00 | 0.00 | 0.00 | 34 | 1008.8 | |
| 20260505234912 | 73 | 0.0 | 0.0 | 0.00 | 0.00 | 0.00 | 34 | 1009.0 | |
| 20260505233914 | 73 | 0.0 | 0.0 | 0.00 | 0.00 | 0.00 | 34 | 1008.9 | |
| 20260505232912 | 73 | 0.0 | 0.0 | 0.00 | 0.00 | 0.00 | 34 | 1008.8 | |
| 20260505231913 | 73 | 0.0 | 0.0 | 0.00 | 0.00 | 0.00 | 34 | 1008.7 | |
| 20260505230912 | 73 | 0.0 | 0.0 | 0.00 | 0.00 | 0.00 | 34 | 1008.7 | |
| 20260505225913 | 73 | 0.0 | 0.0 | 0.00 | 0.00 | 0.00 | 34 | 1008.7 | |
| 20260505224911 | 73 | 0.0 | 0.0 | 0.00 | 0.00 | 0.00 | 34 | 1008.7 | |
| 20260505223912 | 72 | 0.0 | 0.0 | 0.00 | 0.00 | 0.00 | 34 | 1008.1 | |
| 20260505222912 | 73 | 0.0 | 0.0 | 0.00 | 0.00 | 0.00 | 34 | 1008.6 | |
| 20260505221911 | 73 | 0.0 | 0.0 | 0.00 | 0.00 | 0.00 | 35 | 1008.6 | |
| 20260505220912 | 73 | 0.0 | 0.0 | 0.00 | 0.00 | 0.00 | 35 | 1008.5 | |
| 20260505215912 | 73 | 0.0 | 0.0 | 0.00 | 0.00 | 0.00 | 35 | 1008.4 | |
| 20260505214915 | 73 | 0.0 | 0.0 | 0.00 | 0.00 | 0.00 | 35 | 1008.4 | |
| 20260505214001 | 73 | 0.0 | 0.0 | 0.00 | 0.00 | 0.00 | 35 | 1008.3 | |
| 20260505212923 | 71 | 0.0 | 0.0 | 0.00 | 0.00 | 0.00 | 35 | 1006.5 | |
| 20260505211912 | 73 | 0.0 | 0.0 | 0.00 | 0.00 | 0.00 | 35 | 1008.2 | |
| 20260505210913 | 74 | 0.0 | 0.0 | 0.00 | 0.00 | 0.00 | 35 | 1008.1 | |
| 20260505205913 | 73 | 0.0 | 0.0 | 0.00 | 0.00 | 0.00 | 35 | 1008.1 | |
| 20260505204913 | 74 | 0.0 | 0.0 | 0.00 | 0.00 | 0.00 | 35 | 1008.0 | |
| 20260505203912 | 74 | 0.0 | 0.0 | 0.00 | 0.00 | 0.00 | 34 | 1007.8 | |
| 20260505202914 | 74 | 0.0 | 0.0 | 0.00 | 0.00 | 0.00 | 34 | 1007.8 | |
| 20260505201915 | 74 | 0.0 | 0.0 | 0.00 | 0.00 | 0.00 | 34 | 1007.7 | |
| 20260505200913 | 74 | 0.0 | 0.0 | 0.00 | 0.00 | 0.00 | 33 | 1007.7 | |
| 20260505195912 | 74 | 0.0 | 0.0 | 0.00 | 0.00 | 0.00 | 33 | 1007.6 | |
| 20260505194914 | 74 | 0.0 | 0.0 | 0.00 | 0.00 | 0.00 | 33 | 1007.5 | |
| 20260505193912 | 74 | 0.0 | 0.0 | 0.00 | 0.00 | 0.00 | 33 | 1007.4 | |
| 20260505192912 | 74 | 0.0 | 0.0 | 0.00 | 0.00 | 0.00 | 33 | 1007.3 | |
| 20260505191913 | 74 | 0.0 | 0.0 | 0.00 | 0.00 | 0.00 | 33 | 1007.2 | |
| 20260505190913 | 74 | 0.0 | 0.0 | 0.00 | 0.00 | 0.00 | 32 | 1007.1 | |
| 20260505185915 | 74 | 0.0 | 0.0 | 0.00 | 0.00 | 0.00 | 32 | 1007.0 | |
| 20260505184917 | 74 | 0.0 | 0.0 | 0.00 | 0.00 | 0.00 | 32 | 1006.8 | |
| 20260505183915 | 73 | 0.0 | 0.0 | 0.00 | 0.00 | 0.00 | 32 | 1005.4 | |
| 20260505182912 | 74 | 0.0 | 0.0 | 0.00 | 0.00 | 0.00 | 32 | 1006.5 | |
| 20260505181912 | 75 | 0.0 | 0.0 | 0.00 | 0.00 | 0.00 | 32 | 1006.5 | |
| 20260505180911 | 75 | 0.0 | 0.0 | 0.00 | 0.00 | 0.00 | 32 | 1006.4 | |
| 20260505175911 | 75 | 0.0 | 0.0 | 0.00 | 0.00 | 0.00 | 32 | 1006.2 | |
| 20260505174912 | 73 | 0.0 | 0.0 | 0.00 | 0.00 | 0.00 | 32 | 1005.2 | |
| 20260505173912 | 75 | 0.0 | 0.0 | 0.00 | 0.00 | 0.00 | 32 | 1006.1 | |
| 20260505172912 | 75 | 0.0 | 0.0 | 0.00 | 0.00 | 0.00 | 32 | 1005.9 | |
| 20260505171912 | 75 | 0.0 | 0.0 | 0.00 | 0.00 | 0.00 | 32 | 1005.8 | |
| 20260505170912 | 75 | 0.0 | 0.0 | 0.00 | 0.00 | 0.00 | 32 | 1005.7 | |
| 20260505165912 | 75 | 0.0 | 0.0 | 0.00 | 0.00 | 0.00 | 31 | 1005.7 | |
| 20260505164913 | 76 | 0.0 | 0.0 | 0.00 | 0.00 | 0.00 | 31 | 1005.6 | |
| 20260505163912 | 76 | 0.0 | 0.0 | 0.00 | 0.00 | 0.00 | 32 | 1005.6 | |
| 20260505162912 | 76 | 0.0 | 0.0 | 0.00 | 0.00 | 0.00 | 31 | 1005.5 | |
| 20260505161912 | 76 | 0.0 | 0.0 | 0.00 | 0.00 | 0.00 | 32 | 1005.5 | |
| 20260505160911 | 76 | 0.0 | 0.0 | 0.00 | 0.00 | 0.00 | 31 | 1005.6 | |
| 20260505152912 | 77 | 0.0 | 0.0 | 0.00 | 0.00 | 0.00 | 31 | 1005.3 | |
| 20260505151913 | 78 | 0.0 | 0.0 | 0.00 | 0.00 | 0.00 | 31 | 1005.4 | |
| 20260505150912 | 78 | 0.0 | 0.0 | 0.00 | 0.00 | 0.00 | 31 | 1005.2 | |
| 20260505124912 | 89 | 0.0 | 0.0 | 0.00 | 0.00 | 0.00 | 22 | 1005.0 | |
| 20260505123914 | 92 | 0.0 | 0.0 | 0.00 | 0.00 | 0.00 | 20 | 1005.0 | |
| 20260505122912 | 86 | 0.0 | 0.0 | 0.00 | 0.00 | 0.00 | 25 | 1005.2 | |
| 20260505121912 | 100 | 0.0 | 0.0 | 0.00 | 0.00 | 0.00 | 17 | 1005.0 | |
| 20260505120912 | 96 | 0.0 | 0.0 | 0.00 | 0.00 | 0.00 | 18 | 1004.9 | |
| 20260505115911 | 94 | 0.0 | 0.0 | 0.00 | 0.00 | 0.00 | 19 | 1005.0 | |
| 20260505114912 | 93 | 0.0 | 0.0 | 0.00 | 0.00 | 0.00 | 20 | 1004.9 | |
| 20260505113912 | 92 | 0.0 | 0.0 | 0.00 | 0.00 | 0.00 | 21 | 1004.7 | |
| 20260505112911 | 89 | 0.0 | 0.0 | 0.00 | 0.00 | 0.00 | 23 | 1004.9 | |
| 20260505111912 | 87 | 0.0 | 0.0 | 0.00 | 0.00 | 0.00 | 24 | 1004.9 | |
| 20260505110912 | 87 | 0.0 | 0.0 | 0.00 | 0.00 | 0.00 | 24 | 1004.9 | |
| 20260505101911 | 76 | 0.0 | 0.0 | 0.00 | 0.00 | 0.00 | 32 | 1004.6 | |
| 20260505100912 | 75 | 0.0 | 0.0 | 0.00 | 0.00 | 0.00 | 33 | 1004.7 | |
| 20260505095912 | 75 | 0.0 | 0.0 | 0.00 | 0.00 | 0.00 | 33 | 1004.5 | |
| 20260505094912 | 75 | 0.0 | 0.0 | 0.00 | 0.00 | 0.00 | 34 | 1004.6 | |
| 20260505093912 | 74 | 0.0 | 0.0 | 0.00 | 0.00 | 0.00 | 33 | 1004.6 | |
| 20260505092912 | 74 | 0.0 | 0.0 | 0.00 | 0.00 | 0.00 | 34 | 1004.6 | |
| 20260505091906 | 74 | 0.0 | 0.0 | 0.00 | 0.00 | 0.00 | 34 | 1004.6 | |
| 20260505085912 | 75 | 0.0 | 0.0 | 0.00 | 0.00 | 0.00 | 40 | 1004.3 | |
| 20260505084913 | 75 | 0.0 | 0.0 | 0.00 | 0.00 | 0.00 | 40 | 1004.2 | |
| 20260505083912 | 75 | 0.0 | 0.0 | 0.00 | 0.00 | 0.00 | 40 | 1004.2 | |
| 20260505082912 | 75 | 0.0 | 0.0 | 0.00 | 0.00 | 0.00 | 41 | 1004.1 | |
| 20260505081912 | 74 | 0.0 | 0.0 | 0.00 | 0.00 | 0.00 | 42 | 1004.0 | |
| 20260505080912 | 73 | 0.0 | 0.0 | 0.00 | 0.00 | 0.00 | 41 | 1002.4 | |
| 20260505075911 | 75 | 0.0 | 0.0 | 0.00 | 0.00 | 0.00 | 42 | 1003.8 | |
| 20260505074912 | 75 | 0.0 | 0.0 | 0.00 | 0.00 | 0.00 | 42 | 1003.8 | |
| 20260505073912 | 75 | 0.0 | 0.0 | 0.00 | 0.00 | 0.00 | 42 | 1003.8 | |
| 20260505072912 | 75 | 0.0 | 0.0 | 0.00 | 0.00 | 0.00 | 42 | 1003.7 | |
| 20260505071912 | 75 | 0.0 | 0.0 | 0.00 | 0.00 | 0.00 | 42 | 1003.6 |